This is the latest recevied weather packets stored in our database for station/object KA7EII-13. If no packets are shown the sender has not sent any weather packets the latest 10 day(s).
| Time | Temp. | Humidity | Pressure | Rain* | Wind** | Luminosity | Snow |
|---|---|---|---|---|---|---|---|
| 1778026466 | 16.11° C | 28% | 1098 hPa | 0 mm | - | 105 W/m² | - |
| 1778026163 | 16.11° C | 29% | 1098.1 hPa | 0 mm | - | 74 W/m² | - |
| 1778025861 | 16.67° C | 28% | 1098 hPa | 0 mm | - | 91 W/m² | - |
| 1778025557 | 16.67° C | 27% | 1097.8 hPa | 0 mm | - | 88 W/m² | - |
| 1778025256 | 16.67° C | 27% | 1097.6 hPa | 0 mm | - | 126 W/m² | - |
| 1778024952 | 16.67° C | 27% | 1097.8 hPa | 0 mm | - | 92 W/m² | - |
| 1778024650 | 17.22° C | 27% | 1097.7 hPa | 0 mm | - | 165 W/m² | - |
| 1778024346 | 16.67° C | 27% | 1097.7 hPa | 0 mm | - | 171 W/m² | - |
| 1778024044 | 17.22° C | 27% | 1097.7 hPa | 0 mm | - | 145 W/m² | - |
| 1778023741 | 17.22° C | 26% | 1098 hPa | 0 mm | - | 254 W/m² | - |
| 1778023439 | 17.78° C | 26% | 1098 hPa | 0 mm | - | 253 W/m² | - |
| 1778023135 | 17.78° C | 27% | 1097.7 hPa | 0 mm | - | 305 W/m² | - |
| 1778022833 | 17.78° C | 26% | 1097.4 hPa | 0 mm | - | 355 W/m² | - |
| 1778022531 | 18.33° C | 25% | 1097.6 hPa | 0 mm | - | 375 W/m² | - |
| 1778022228 | 17.78° C | 25% | 1097.8 hPa | 0 mm | - | 409 W/m² | - |
| 1778021925 | 18.33° C | 26% | 1097.8 hPa | 0 mm | - | 438 W/m² | - |
| 1778021622 | 17.78° C | 27% | 1097.8 hPa | 0 mm | - | 490 W/m² | - |
| 1778021317 | 17.78° C | 26% | 1097.7 hPa | 0 mm | - | 326 W/m² | - |
| 1778021016 | 18.33° C | 26% | 1097.6 hPa | 0 mm | - | 368 W/m² | - |
| 1778020713 | 18.89° C | 27% | 1097.8 hPa | 0 mm | - | 446 W/m² | - |
| 1778020410 | 18.33° C | 25% | 1097.8 hPa | 0 mm | - | 459 W/m² | - |
| 1778020105 | 18.33° C | 26% | 1098 hPa | 0 mm | - | 483 W/m² | - |
| 1778019801 | 18.33° C | 24% | 1098 hPa | 0 mm | - | 486 W/m² | - |
| 1778019499 | 18.89° C | 25% | 1097.8 hPa | 0 mm | - | 530 W/m² | - |
| 1778019195 | 17.78° C | 27% | 1098.1 hPa | 0 mm | - | 582 W/m² | - |
* Rain latest hour (hover to see other rain measurements)
** Current wind speed in m/s (hover to see current wind gust speed)